This is the latest recevied weather packets stored in our database for station/object SQ8AQL-16. If no packets are shown the sender has not sent any weather packets the latest 10 day(s).
| Time | Temp. | Humidity | Pressure | Rain* | Wind** | Luminosity | Snow |
|---|---|---|---|---|---|---|---|
| 1777756533 | 12.22° C | 59% | 1023 hPa | - | - | - | - |
| 1777755632 | 13.33° C | 56% | 1023.2 hPa | - | - | - | - |
| 1777754731 | 13.33° C | 56% | 1023.1 hPa | - | - | - | - |
| 1777753830 | 13.33° C | 54% | 1023.2 hPa | - | - | - | - |
| 1777752928 | 15° C | 49% | 1023.2 hPa | - | - | - | - |
| 1777752027 | 15° C | 49% | 1023.2 hPa | - | - | - | - |
| 1777751126 | 15° C | 49% | 1023.3 hPa | - | - | - | - |
| 1777750224 | 15.56° C | 47% | 1023.3 hPa | - | - | - | - |
| 1777749324 | 15.56° C | 46% | 1023.4 hPa | - | - | - | - |
| 1777748422 | 16.67° C | 44% | 1023.3 hPa | - | - | - | - |
| 1777747522 | 17.22° C | 41% | 1023.2 hPa | - | - | - | - |
| 1777746621 | 18.89° C | 36% | 1023.1 hPa | - | - | 2 W/m² | - |
| 1777745720 | 18.89° C | 36% | 1023.1 hPa | - | - | 2 W/m² | - |
| 1777744818 | 18.89° C | 36% | 1022.9 hPa | - | - | 2 W/m² | - |
| 1777743918 | 19.44° C | 34% | 1022.8 hPa | - | - | 4 W/m² | - |
| 1777743016 | 20° C | 33% | 1022.9 hPa | - | - | 8 W/m² | - |
| 1777742115 | 21.11° C | 31% | 1022.9 hPa | - | - | 12 W/m² | - |
| 1777741214 | 21.67° C | 31% | 1022.9 hPa | - | - | 19 W/m² | - |
| 1777739408 | 23.89° C | 26% | 1023 hPa | - | - | 27 W/m² | - |
| 1777738507 | 26.11° C | 23% | 1023.1 hPa | - | - | 40 W/m² | - |
| 1777737606 | 28.33° C | 21% | 1023.3 hPa | - | - | 145 W/m² | - |
| 1777736704 | 28.89° C | 20% | 1023.4 hPa | - | - | 208 W/m² | - |
| 1777735802 | 29.44° C | 19% | 1023.5 hPa | - | - | 276 W/m² | - |
| 1777734902 | 29.44° C | 18% | 1023.6 hPa | - | - | 310 W/m² | - |
| 1777734001 | 30.56° C | 18% | 1023.7 hPa | - | - | 359 W/m² | - |
* Rain since midnight (hover to see other rain measurements)
** Current wind speed in m/s (hover to see current wind gust speed)